Le nostre stazioni meteo in Italia

Pubblicità
Il mio iltempo24.it
Ronchi Dei Legionari, Italia (16108): Temperatura & dewpoint: 13.03.2019 19:00:00 - 19.03.2019 19:00:00 (CET)Ronchi Dei Legionari, Italia (16108): velocità del vento: 13.03.2019 19:00:00 - 19.03.2019 19:00:00 (CET)Ronchi Dei Legionari, Italia (16108): direzione del vento: 13.03.2019 19:00:00 - 19.03.2019 19:00:00 (CET)Ronchi Dei Legionari, Italia (16108): reduced air pressure: 13.03.2019 19:00:00 - 19.03.2019 19:00:00 (CET)Ronchi Dei Legionari, Italia (16108): visibility: 13.03.2019 19:00:00 - 19.03.2019 19:00:00 (CET)Ronchi Dei Legionari, Italia (16108): precipitazioni: 13.03.2019 19:00:00 - 19.03.2019 19:00:00 (CET)
Data & Tempo tt [°C] td [°C] ff [km/h] ff [kn] dd ppp [hPa] vv [km] rr [mm]
19.03.2019 19:00:00 9,0 0,0 24 13 E - 10 -
19.03.2019 18:00:00 10,0 0,0 24 13 E - 10 -
19.03.2019 17:00:00 12,0 -1,0 28 15 E - 10 -
19.03.2019 16:00:00 11,9 -0,3 28 15 E 1023,4 10 0,0
19.03.2019 15:00:00 12,0 1,0 15 8 E - 10 -
19.03.2019 14:00:00 11,0 0,0 15 8 E - 10 -
19.03.2019 13:00:00 10,9 -0,8 15 8 ENE 1023,5 10 -
19.03.2019 12:00:00 11,0 0,0 15 8 ENE - 10 -
19.03.2019 11:00:00 10,0 1,0 11 6 ENE - 10 -
19.03.2019 10:00:00 9,0 0,4 16 9 E 1023,5 10 0,0
19.03.2019 09:00:00 9,0 0,0 15 8 ENE - 10 -
19.03.2019 08:00:00 8,0 0,0 11 6 ENE - 10 -
19.03.2019 07:00:00 7,7 -0,4 9 5 ENE 1021,9 10 -
19.03.2019 06:00:00 8,0 0,0 9 5 ENE - 10 -
19.03.2019 05:00:00 - - - - - - - -
19.03.2019 04:00:00 6,0 3,0 8 4 NO - 10 -
19.03.2019 03:00:00 6,0 3,0 4 2 - - 10 -
19.03.2019 02:00:00 - - - - - - - -
19.03.2019 01:00:00 - - - - - - - -
19.03.2019 00:00:00 6,0 4,0 4 2 - - 10 -
18.03.2019 23:00:00 7,0 4,0 4 2 - - 10 -
18.03.2019 22:00:00 7,0 3,0 4 2 - 1020,1 10 0,0
18.03.2019 21:00:00 8,0 2,0 5 3 E - 10 -
18.03.2019 20:00:00 7,0 4,0 8 4 SE - 10 -
18.03.2019 19:00:00 7,2 5,2 8 4 ESE 1018,6 9 -
18.03.2019 18:00:00 8,0 3,0 8 4 NE - 10 -
18.03.2019 17:00:00 8,0 3,0 5 3 NNE - 10 -
18.03.2019 16:00:00 7,2 4,4 8 4 N 1016,7 10 0,0
18.03.2019 15:00:00 7,0 4,0 16 9 ENE - 9 -
18.03.2019 14:00:00 6,0 4,0 18 10 N - 4,0 -
18.03.2019 13:00:00 6,5 4,6 21 11 NNO 1016,3 6 -
18.03.2019 12:00:00 7,0 6,0 11 6 NNE - 8 -
18.03.2019 11:00:00 8,0 7,0 22 12 N - 7 -
18.03.2019 10:00:00 8,4 6,8 21 11 NO 1012,5 10 0,0
18.03.2019 09:00:00 13,0 10,0 11 6 SE - 10 -
18.03.2019 08:00:00 12,0 10,0 11 6 SSE - 10 -
18.03.2019 07:00:00 11,9 10,0 13 7 SSE 1010,8 10 -
18.03.2019 06:00:00 12,0 10,0 16 9 SSE - 10 -
18.03.2019 05:00:00 13,0 10,0 24 13 SSE - 10 -
18.03.2019 04:00:00 12,6 10,0 21 11 SSE 1010,0 10 0,0
18.03.2019 03:00:00 13,0 10,0 16 9 S - 10 -
18.03.2019 02:00:00 12,0 11,0 8 4 ESE - 10 -
18.03.2019 01:00:00 11,5 10,4 5 3 NNE 1010,8 10 -
18.03.2019 00:00:00 12,0 10,0 4 2 NNE - 9 -
17.03.2019 23:00:00 12,0 10,0 4 2 - - 9 -
17.03.2019 22:00:00 12,7 10,5 11 6 SSO 1011,9 9 0,0
17.03.2019 21:00:00 12,0 11,0 8 4 O - 9 -
17.03.2019 20:00:00 12,0 10,0 5 3 NO - 9 -
17.03.2019 19:00:00 11,9 9,7 5 3 N 1012,5 9 -
17.03.2019 18:00:00 12,0 10,0 5 3 SE - 10 -
17.03.2019 17:00:00 12,0 10,0 9 5 SO - 10 -
17.03.2019 16:00:00 12,8 9,9 15 8 SO 1013,4 10 0,0
17.03.2019 15:00:00 14,0 11,0 16 9 SO - 10 -
17.03.2019 14:00:00 15,0 11,0 18 10 SO - 10 -
17.03.2019 13:00:00 15,5 11,1 21 11 SSO 1015,2 10 -
17.03.2019 12:00:00 16,0 11,0 24 13 SSO - 10 -
17.03.2019 11:00:00 15,0 9,0 16 9 S - 10 -
17.03.2019 10:00:00 14,4 9,7 15 8 SSE 1016,9 10 0,0
17.03.2019 09:00:00 14,0 10,0 11 6 SE - 10 -
17.03.2019 08:00:00 12,0 9,0 9 5 E - 10 -
17.03.2019 07:00:00 10,5 8,1 9 5 E 1015,9 10 -
17.03.2019 06:00:00 10,0 8,0 9 5 E - 10 -
17.03.2019 05:00:00 10,0 8,0 8 4 E - 10 -
17.03.2019 04:00:00 10,0 7,9 9 5 E 1015,6 10 0,0
17.03.2019 03:00:00 11,0 8,0 5 3 E - 10 -
17.03.2019 02:00:00 10,0 8,0 4 2 ENE - 10 -
17.03.2019 01:00:00 10,0 8,2 4 2 - 1016,4 10 -
17.03.2019 00:00:00 9,0 8,0 8 4 E - 10 -
16.03.2019 23:00:00 8,0 7,0 5 3 E - 10 -
16.03.2019 22:00:00 8,4 7,5 8 4 NE 1016,7 10 0,0
16.03.2019 21:00:00 10,0 7,0 5 3 NE - 10 -
16.03.2019 20:00:00 9,0 7,0 4 2 - - 10 -
16.03.2019 19:00:00 10,6 8,0 8 4 SE 1015,4 10 -
16.03.2019 18:00:00 13,0 9,0 8 4 SE - 10 -
16.03.2019 17:00:00 14,0 9,0 13 7 SE - 10 -
16.03.2019 16:00:00 15,1 8,0 13 7 SSE 1014,1 10 0,0
16.03.2019 15:00:00 17,0 7,0 9 5 S - 10 -
16.03.2019 14:00:00 17,0 9,0 11 6 S - 10 -
16.03.2019 13:00:00 17,1 8,0 9 5 S 1014,7 10 -
16.03.2019 12:00:00 17,0 8,0 9 5 SSO - 10 -
16.03.2019 11:00:00 15,0 8,0 5 3 E - 10 -
16.03.2019 10:00:00 14,2 7,9 4 2 - 1014,9 10 0,0
16.03.2019 09:00:00 10,0 7,0 4 2 - - 10 -
16.03.2019 08:00:00 6,0 4,0 5 3 N - 10 -
16.03.2019 07:00:00 3,8 2,6 4 2 - 1013,2 10 -
16.03.2019 06:00:00 3,0 2,0 4 2 - - 8 -
16.03.2019 05:00:00 3,0 2,0 2 1 NNE - 6 -
16.03.2019 04:00:00 3,2 2,1 2 1 - 1012,5 8 0,0
16.03.2019 03:00:00 4,0 3,0 4 2 - - 8 -
16.03.2019 02:00:00 4,0 3,0 5 3 N - 6 -
16.03.2019 01:00:00 4,0 2,8 5 3 NE 1013,3 10 -
16.03.2019 00:00:00 4,0 2,0 5 3 NNE - 10 -
15.03.2019 23:00:00 6,0 3,0 11 6 E - 10 -
15.03.2019 22:00:00 5,9 3,1 2 1 - 1013,5 10 0,0
15.03.2019 21:00:00 7,0 2,0 5 3 NE - 10 -
15.03.2019 20:00:00 9,0 3,0 5 3 ESE - 10 -
15.03.2019 19:00:00 10,2 3,2 5 3 SSE 1011,6 10 -
15.03.2019 18:00:00 13,0 3,0 13 7 SSO - 10 -
15.03.2019 17:00:00 14,0 2,0 5 3 S - 10 -
15.03.2019 16:00:00 15,1 1,7 13 7 S 1010,7 10 0,0
15.03.2019 15:00:00 16,0 3,0 9 5 S - 10 -
15.03.2019 14:00:00 15,0 5,0 5 3 - - 10 -
15.03.2019 13:00:00 14,4 6,6 4 2 - 1011,5 10 -
15.03.2019 12:00:00 13,0 7,0 5 3 - - 10 -
15.03.2019 11:00:00 12,0 6,0 9 5 S - 10 -
15.03.2019 10:00:00 11,3 4,7 5 3 SE 1011,2 10 0,0
15.03.2019 09:00:00 9,0 4,0 4 2 - - 10 -
15.03.2019 08:00:00 5,0 3,0 2 1 - - 10 -
15.03.2019 07:00:00 2,5 0,4 8 4 NNE 1009,2 10 -
15.03.2019 06:00:00 2,0 0,0 8 4 N - 10 -
15.03.2019 05:00:00 1,0 0,0 9 5 N - 10 -
15.03.2019 04:00:00 2,3 1,1 5 3 NE 1008,0 10 0,0
15.03.2019 03:00:00 2,0 1,0 9 5 N - 10 -
15.03.2019 02:00:00 2,0 1,0 8 4 N - 10 -
15.03.2019 01:00:00 3,1 1,7 4 2 - 1008,4 10 -
15.03.2019 00:00:00 3,0 1,0 9 5 E - 10 -
14.03.2019 23:00:00 3,0 1,0 4 2 - - 10 -
14.03.2019 22:00:00 4,0 1,6 5 3 E 1009,4 10 0,0
14.03.2019 21:00:00 5,0 2,0 4 2 - - 10 -
14.03.2019 20:00:00 7,0 3,0 2 1 - - 10 -
14.03.2019 19:00:00 7,8 3,0 5 3 ESE 1010,1 10 -
14.03.2019 18:00:00 9,0 3,0 4 2 - - 10 -
14.03.2019 17:00:00 10,0 3,0 9 5 S - 10 -
14.03.2019 16:00:00 9,9 3,4 13 7 SO 1011,6 10 0,0
14.03.2019 15:00:00 - - - - - - - -
14.03.2019 14:00:00 12,0 2,0 9 5 SO - 10 -
14.03.2019 13:00:00 11,9 1,5 13 7 SO 1013,8 10 -
14.03.2019 12:00:00 11,0 3,0 9 5 S - 10 -
14.03.2019 11:00:00 11,0 4,0 5 3 S - 10 -
14.03.2019 10:00:00 9,9 3,2 4 2 - 1015,1 10 0,0
14.03.2019 09:00:00 7,0 2,0 4 2 - - 10 -
14.03.2019 08:00:00 3,0 2,0 2 1 - - 10 -
14.03.2019 07:00:00 0,5 0,1 2 1 - 1014,8 10 -
14.03.2019 06:00:00 1,0 0,0 2 1 - - 10 -
14.03.2019 05:00:00 2,0 1,0 8 4 NNO - 10 -
14.03.2019 04:00:00 2,2 1,2 5 3 N 1014,4 10 0,0
14.03.2019 03:00:00 2,0 1,0 5 3 NNO - 10 -
14.03.2019 02:00:00 3,0 2,0 4 2 - - 10 -
14.03.2019 01:00:00 4,5 3,0 8 4 NNE 1014,5 10 -
14.03.2019 00:00:00 6,0 3,0 5 3 NO - 10 -
13.03.2019 23:00:00 6,0 4,0 15 8 ESE - 10 -
13.03.2019 22:00:00 6,8 3,5 2 1 - 1014,2 10 0,0
13.03.2019 21:00:00 7,0 3,0 5 3 E - 10 -
13.03.2019 20:00:00 8,0 3,0 8 4 NE - 10 -
13.03.2019 19:00:00 8,1 3,0 16 9 E 1013,3 10 -

tt = Temperatura
td = dewpoint
ff = velocità del vento
dd = direzione del vento
ppp = reduced air pressure
vv = visibility
rr = precipitazioni

Stazioni seguenti

WeatherPro
AMSI
MeteoEarth